Tracking 17265 objects as of 3-September-2015
HD Live streaming from Space Station

Track Soyuz TMA-18M
and Space Station

YAMAL 202

Track YAMAL 202 now!
YAMAL 202 is classified as:


NORAD ID: 28089
Int'l Code: 2003-053A
Perigee: 35,779.5 km
Apogee: 35,808.9 km
Inclination: 0.0 °
Period: 1,436.1 minutes
Semi major axis: 42165 km
RCS: 0.003 m2 (small)
Launch date: November 24, 2003
Source: Commonwealth of Independent States (former USSR) (CIS)

18 C-band; provide communications for gas corporation operations throughout Eurasian continent.
Your satellite tracking list
Your tracking list is empty





NASA's NSSDC Master Catalog

Two Line Element Set (TLE):
1 28089U 03053A   15244.76416428 +.00000092 +00000-0 +00000-0 0  9993
2 28089 000.0034 131.4135 0003489 039.2015 134.0802 01.00270102043152

Source of the keplerian elements: AFSPC

N2YO: 563